CW0641 Weather Reports


Display with metric or nautical units.
time (UTC)temp
F
wind
direction
speed
MPH
gust
MPH
rain 1hr
in
rain 24hr
in
rain mn
in
humidity
%
barometer
mb
20260905081446 82 240 2.0 8.0 0.00 0.00 0.00 49 1013.6
20260905080947 82 271 2.0 7.0 0.00 0.00 0.00 50 1013.7
20260905080449 82 268 2.0 7.0 0.00 0.00 0.00 49 1013.7
20260905075947 82 290 2.0 9.0 0.00 0.00 0.00 50 1013.6
20260905074946 82 329 1.0 7.0 0.00 0.00 0.00 51 1013.6
20260905074448 81 248 2.0 8.0 0.00 0.00 0.00 51 1013.6
20260905073943 81 338 3.0 8.0 0.00 0.00 0.00 53 1013.6
20260905073444 81 288 2.0 7.0 0.00 0.00 0.00 54 1013.6
20260905072942 80 290 1.0 5.0 0.00 0.00 0.00 54 1013.7
20260905072442 80 331 1.0 5.0 0.00 0.00 0.00 54 1013.6
20260905071942 80 229 1.0 5.0 0.00 0.00 0.00 55 1013.6
20260905071442 79 297 1.0 6.0 0.00 0.00 0.00 56 1013.7
20260905070929 78 289 1.0 6.0 0.00 0.00 0.00 57 1013.7
20260905070429 78 298 2.0 7.0 0.00 0.00 0.00 58 1013.7
20260905065930 78 238 2.0 7.0 0.00 0.00 0.00 60 1013.7
20260905065428 77 257 2.0 7.0 0.00 0.00 0.00 61 1013.6
20260905064929 77 251 1.0 6.0 0.00 0.00 0.00 63 1013.7
20260905064425 76 318 1.0 4.0 0.00 0.00 0.00 66 1013.6
20260905063925 76 355 1.0 4.0 0.00 0.00 0.00 70 1013.6
20260905062926 74 355 1.0 4.0 0.00 0.00 0.00 73 1013.5
20260905062425 73 341 1.0 4.0 0.00 0.00 0.00 76 1013.5
20260905061924 73 333 0.0 3.0 0.00 0.00 0.00 78 1013.4
20260905061425 73 334 0.0 2.0 0.00 0.00 0.00 80 1013.5
20260905060926 73 334 0.0 3.0 0.00 0.00 0.00 81 1013.4
20260905060422 72 313 0.0 3.0 0.00 0.00 0.00 83 1013.4
20260905055916 71 313 1.0 6.0 0.00 0.00 0.00 84 1013.4
20260905054910 71 310 1.0 5.0 0.00 0.00 0.00 87 1013.3
20260905054411 71 332 1.0 5.0 0.00 0.00 0.00 88 1013.3
20260905053909 71 335 1.0 5.0 0.00 0.00 0.00 89 1013.2
20260905052912 70 5 1.0 4.0 0.00 0.00 0.00 90 1013.2
20260905051908 70 302 1.0 5.0 0.00 0.00 0.00 91 1013.2
20260905051408 70 329 1.0 5.0 0.00 0.00 0.00 91 1013.2
20260905045909 69 355 0.0 4.0 0.00 0.00 0.00 91 1013.1
20260905044907 69 320 0.0 4.0 0.00 0.00 0.00 91 1013.1
20260905044406 69 338 1.0 4.0 0.00 0.00 0.00 91 1013.1
20260905043901 69 327 2.0 7.0 0.00 0.00 0.00 91 1013.1
20260905042850 68 341 1.0 5.0 0.00 0.00 0.00 91 1013.0
20260905042348 68 321 2.0 6.0 0.00 0.00 0.00 91 1013.0
20260905041845 68 337 3.0 8.0 0.00 0.00 0.00 91 1013.0
20260905041346 68 297 2.0 8.0 0.00 0.00 0.00 91 1013.0
20260905040338 68 337 3.0 9.0 0.00 0.00 0.00 90 1013.1
20260905035839 68 311 2.0 9.0 0.00 0.00 0.00 90 1013.0
20260905035338 68 313 2.0 7.0 0.00 0.00 0.00 90 1013.0
20260905034337 67 348 3.0 10.0 0.00 0.00 0.00 90 1013.0
20260905033835 67 348 2.0 8.0 0.00 0.00 0.00 90 1012.9
20260905033337 67 315 3.0 6.0 0.00 0.00 0.00 90 1012.8
20260905032330 67 0 3.0 6.0 0.00 0.00 0.00 90 1012.6
20260905031833 67 355 2.0 5.0 0.00 0.00 0.00 89 1012.6
20260905031331 67 344 1.0 3.0 0.00 0.00 0.00 90 1012.6
20260905030827 67 344 0.0 3.0 0.00 0.00 0.00 89 1012.5
20260905030327 67 344 0.0 2.0 0.00 0.00 0.00 89 1012.4
20260905025826 67 344 0.0 2.0 0.00 0.00 0.00 89 1012.3
20260905025330 67 344 0.0 2.0 0.00 0.00 0.00 89 1012.3
20260905024827 67 344 0.0 3.0 0.00 0.00 0.00 89 1012.2
20260905024327 67 344 1.0 3.0 0.00 0.00 0.00 89 1012.3
20260905022826 67 331 0.0 3.0 0.00 0.00 0.00 89 1012.2
20260905022321 67 331 0.0 3.0 0.00 0.00 0.00 89 1012.1
20260905021827 67 331 0.0 3.0 0.00 0.00 0.00 88 1012.1
20260905021315 67 331 0.0 3.0 0.00 0.00 0.00 88 1012.1
20260905020315 67 335 0.0 2.0 0.00 0.00 0.00 88 1012.0
20260905015816 67 335 0.0 2.0 0.00 0.00 0.00 88 1012.0
20260905015257 67 336 0.0 2.0 0.00 0.00 0.00 88 1012.0
20260905014814 67 336 0.0 2.0 0.00 0.00 0.00 88 1012.0
20260905014257 67 336 0.0 2.0 0.00 0.00 0.00 88 1012.0
20260905013815 68 337 1.0 3.0 0.00 0.00 0.00 88 1012.0
20260905013258 68 337 1.0 4.0 0.00 0.00 0.00 88 1012.0
20260905012811 68 341 2.0 4.0 0.00 0.00 0.00 88 1012.0
20260905012252 68 347 2.0 5.0 0.00 0.00 0.00 88 1012.0
20260905011235 68 344 2.0 5.0 0.00 0.00 0.00 87 1012.0
20260905010806 69 5 2.0 5.0 0.00 0.00 0.00 87 1012.0
20260905010228 69 5 3.0 5.0 0.00 0.00 0.00 87 1012.1
20260905005805 69 338 2.0 5.0 0.00 0.00 0.00 87 1012.0
20260905005230 69 355 2.0 5.0 0.00 0.00 0.00 87 1012.0
20260905004804 69 350 2.0 4.0 0.00 0.00 0.00 86 1012.0
20260905004228 69 343 2.0 5.0 0.00 0.00 0.00 86 1012.1
20260905003803 69 348 2.0 5.0 0.00 0.00 0.00 86 1012.1
20260905003227 69 348 2.0 5.0 0.00 0.00 0.00 85 1012.1
20260905001226 70 355 2.0 4.0 0.00 0.00 0.00 84 1012.2
20260905000754 70 350 1.0 4.0 0.00 0.00 0.00 83 1012.1
20260904235756 70 350 1.0 4.0 0.00 0.00 0.00 82 1012.1
20260904235221 70 345 1.0 4.0 0.00 0.00 0.00 81 1012.1
20260904234753 70 336 2.0 6.0 0.00 0.00 0.00 81 1012.1
20260904234221 70 350 2.0 6.0 0.00 0.00 0.00 80 1012.1
20260904233750 70 342 1.0 4.0 0.00 0.00 0.00 79 1012.1
20260904233218 70 315 1.0 4.0 0.00 0.00 0.00 78 1012.2
20260904232750 70 291 1.0 3.0 0.00 0.00 0.00 78 1012.2
20260904232219 70 298 1.0 3.0 0.00 0.00 0.00 77 1012.1
20260904231750 70 320 1.0 3.0 0.00 0.00 0.00 76 1012.2
20260904231217 71 350 0.0 3.0 0.00 0.00 0.00 75 1012.1
20260904230212 71 350 0.0 3.0 0.00 0.00 0.00 74 1012.2
20260904225209 71 325 0.0 4.0 0.00 0.00 0.00 72 1012.1
20260904224742 71 325 1.0 4.0 0.00 0.00 0.00 71 1012.2
20260904224207 71 323 2.0 4.0 0.00 0.00 0.00 70 1012.2
20260904223744 71 320 1.0 6.0 0.00 0.00 0.00 69 1012.1
20260904223208 71 346 2.0 6.0 0.00 0.00 0.00 68 1012.1
20260904222743 71 325 2.0 8.0 0.00 0.00 0.00 68 1012.1
20260904222205 70 343 2.0 8.0 0.00 0.00 0.00 68 1012.2
20260904221740 70 312 2.0 6.0 0.00 0.00 0.00 68 1012.2
20260904221158 69 317 2.0 6.0 0.00 0.00 0.00 69 1012.2
20260904220150 68 333 2.0 6.0 0.00 0.00 0.00 73 1012.3
20260904215736 67 334 2.0 6.0 0.00 0.00 0.00 77 1012.3
20260904215151 66 315 2.0 6.0 0.00 0.00 0.00 79 1012.2
20260904214731 65 314 2.0 6.0 0.00 0.00 0.00 82 1012.3
20260904214152 65 305 2.0 6.0 0.00 0.00 0.00 83 1012.3
20260904213734 66 331 2.0 4.0 0.00 0.00 0.00 85 1012.3
20260904212153 67 323 1.0 3.0 0.00 0.00 0.00 88 1012.5
20260904211733 67 322 1.0 3.0 0.00 0.00 0.00 88 1012.4
20260904211146 67 322 1.0 4.0 0.00 0.00 0.00 88 1012.5
20260904210724 68 321 1.0 4.0 0.00 0.00 0.00 87 1012.5
20260904210145 68 323 1.0 3.0 0.00 0.00 0.00 88 1012.6
20260904205721 69 335 1.0 3.0 0.00 0.00 0.00 88 1012.6
20260904205129 69 335 1.0 3.0 0.00 0.00 0.00 88 1012.5
20260904204725 69 336 1.0 3.0 0.00 0.00 0.00 89 1012.5
20260904204127 69 336 1.0 3.0 0.00 0.00 0.00 89 1012.5
20260904203121 69 336 1.0 2.0 0.00 0.00 0.00 89 1012.5
20260904202719 69 336 1.0 3.0 0.00 0.00 0.00 89 1012.5
20260904202121 70 336 1.0 3.0 0.00 0.00 0.00 89 1012.6
20260904201718 70 336 1.0 3.0 0.00 0.00 0.00 89 1012.6
20260904201120 70 336 1.0 3.0 0.00 0.00 0.00 89 1012.6
20260904200715 70 336 1.0 3.0 0.00 0.00 0.00 89 1012.6
20260904200116 70 336 1.0 3.0 0.00 0.00 0.00 89 1012.6
20260904195713 70 336 1.0 3.0 0.00 0.00 0.00 89 1012.6
20260904195112 71 336 1.0 3.0 0.00 0.00 0.00 89 1012.6
20260904194717 71 336 1.0 3.0 0.00 0.00 0.00 89 1012.6
20260904194114 71 336 1.0 3.0 0.00 0.00 0.00 89 1012.6
20260904193708 71 336 1.0 3.0 0.00 0.00 0.00 89 1012.8
20260904193110 71 336 1.0 3.0 0.00 0.00 0.00 89 1012.6
20260904192708 71 336 1.0 3.0 0.00 0.00 0.00 89 1012.6
20260904192111 71 335 2.0 5.0 0.00 0.00 0.00 89 1012.6
20260904191705 71 342 2.0 5.0 0.00 0.00 0.00 89 1012.6
20260904191110 71 338 2.0 6.0 0.00 0.00 0.00 89 1012.6
20260904190703 71 335 2.0 6.0 0.00 0.00 0.00 89 1012.6
20260904190108 71 336 2.0 6.0 0.00 0.00 0.00 89 1012.6
20260904185702 71 320 2.0 6.0 0.00 0.00 0.00 88 1012.6
20260904184659 71 5 2.0 5.0 0.00 0.00 0.00 88 1012.6
20260904184104 71 355 2.0 6.0 0.00 0.00 0.00 88 1012.6
20260904183657 72 355 2.0 7.0 0.00 0.00 0.00 88 1012.6
20260904182700 72 263 2.0 8.0 0.00 0.00 0.00 88 1012.8
20260904182054 72 338 2.0 8.0 0.00 0.00 0.00 87 1012.8
20260904181700 72 315 2.0 8.0 0.00 0.00 0.00 87 1012.8
20260904181052 72 326 2.0 7.0 0.00 0.00 0.00 87 1012.6
20260904180653 72 344 2.0 7.0 0.00 0.00 0.00 87 1012.6
20260904175650 72 0 2.0 8.0 0.00 0.00 0.00 86 1012.5
20260904175051 72 355 4.0 9.0 0.00 0.00 0.00 86 1012.5
20260904174653 73 323 4.0 9.0 0.00 0.00 0.00 86 1012.4
20260904174051 73 314 4.0 12.0 0.00 0.00 0.00 85 1012.3
20260904173648 73 285 4.0 12.0 0.00 0.00 0.00 85 1012.3
20260904173052 73 300 4.0 9.0 0.00 0.00 0.00 84 1012.2
20260904172649 73 301 4.0 9.0 0.00 0.00 0.00 84 1012.2
20260904172049 73 276 4.0 10.0 0.00 0.00 0.00 84 1012.2
20260904171650 74 254 3.0 10.0 0.00 0.00 0.00 83 1012.1
20260904171053 74 297 3.0 10.0 0.00 0.00 0.00 83 1012.1
20260904170646 74 282 3.0 9.0 0.00 0.00 0.00 82 1012.0
20260904170049 74 323 3.0 10.0 0.00 0.00 0.00 82 1011.9
20260904165640 74 284 3.0 10.0 0.00 0.00 0.00 81 1011.8
20260904165046 74 298 4.0 9.0 0.00 0.00 0.00 80 1011.7
20260904164641 74 331 5.0 11.0 0.00 0.00 0.00 80 1011.6
20260904164045 75 289 5.0 12.0 0.00 0.00 0.00 79 1011.6
20260904163642 75 329 6.0 13.0 0.00 0.00 0.00 78 1011.6
20260904163046 75 342 6.0 13.0 0.00 0.00 0.00 77 1011.5
20260904162634 75 0 5.0 11.0 0.00 0.00 0.00 76 1011.4
20260904162047 76 304 5.0 11.0 0.00 0.00 0.00 75 1011.3
20260904161639 76 349 5.0 12.0 0.00 0.00 0.00 74 1011.3
20260904161046 76 325 4.0 12.0 0.00 0.00 0.00 73 1011.1
20260904160632 76 327 5.0 12.0 0.00 0.00 0.00 72 1011.1
20260904160047 76 304 5.0 12.0 0.00 0.00 0.00 71 1011.0
20260904155044 77 304 4.0 13.0 0.00 0.00 0.00 69 1011.0
20260904154633 77 286 5.0 13.0 0.00 0.00 0.00 68 1011.0
20260904153626 78 313 4.0 11.0 0.00 0.00 0.00 66 1010.8
20260904151622 79 255 4.0 13.0 0.00 0.00 0.00 64 1010.6
20260904151032 80 304 4.0 13.0 0.00 0.00 0.00 63 1010.7
20260904150034 80 348 4.0 10.0 0.00 0.00 0.00 61 1010.7
20260904145621 80 302 5.0 12.0 0.00 0.00 0.00 61 1010.7
20260904144618 81 305 5.0 12.0 0.00 0.00 0.00 60 1010.7
20260904144033 81 296 5.0 12.0 0.00 0.00 0.00 59 1010.7
20260904143614 81 344 4.0 12.0 0.00 0.00 0.00 59 1010.7
20260904143030 81 329 4.0 11.0 0.00 0.00 0.00 59 1010.6
20260904142615 81 321 4.0 13.0 0.00 0.00 0.00 59 1010.7
20260904142031 82 311 4.0 13.0 0.00 0.00 0.00 58 1010.7
20260904141617 82 13 5.0 13.0 0.00 0.00 0.00 57 1010.7
20260904141023 82 5 5.0 13.0 0.00 0.00 0.00 56 1010.6
20260904140609 82 344 4.0 13.0 0.00 0.00 0.00 56 1010.7
20260904140024 83 285 5.0 16.0 0.00 0.00 0.00 55 1010.7
20260904135610 83 295 5.0 16.0 0.00 0.00 0.00 56 1010.6
20260904135022 83 351 5.0 13.0 0.00 0.00 0.00 55 1010.6
20260904134609 83 327 5.0 11.0 0.00 0.00 0.00 54 1010.6
20260904134020 83 348 4.0 11.0 0.00 0.00 0.00 52 1010.6
20260904133606 83 345 5.0 11.0 0.00 0.00 0.00 54 1010.6
20260904132607 84 316 5.0 14.0 0.00 0.00 0.00 49 1010.7
20260904132019 84 321 5.0 14.0 0.00 0.00 0.00 50 1010.6
20260904131606 84 301 5.0 10.0 0.00 0.00 0.00 50 1010.6
20260904130601 84 298 5.0 14.0 0.00 0.00 0.00 48 1010.5
20260904130011 84 340 7.0 15.0 0.00 0.00 0.00 49 1010.5
20260904125601 84 312 6.0 15.0 0.00 0.00 0.00 49 1010.5
20260904125011 84 280 4.0 11.0 0.00 0.00 0.00 47 1010.5
20260904124600 84 285 4.0 12.0 0.00 0.00 0.00 48 1010.5
20260904124005 84 294 6.0 15.0 0.00 0.00 0.00 48 1010.4
20260904123558 84 288 5.0 15.0 0.00 0.00 0.00 48 1010.5
20260904122556 85 343 4.0 12.0 0.00 0.00 0.00 47 1010.6
20260904122001 85 306 4.0 12.0 0.00 0.00 0.00 48 1010.5
20260904121555 85 0 5.0 12.0 0.00 0.00 0.00 49 1010.5
20260904121005 85 268 4.0 12.0 0.00 0.00 0.00 48 1010.5
20260904120554 85 324 4.0 12.0 0.00 0.00 0.00 48 1010.6
20260904115959 85 11 4.0 12.0 0.00 0.00 0.00 50 1010.5
20260904115551 85 15 4.0 10.0 0.00 0.00 0.00 50 1010.5
20260904114959 85 0 5.0 10.0 0.00 0.00 0.00 51 1010.5
20260904114546 85 329 5.0 11.0 0.00 0.00 0.00 51 1010.5
20260904112954 85 274 4.0 12.0 0.00 0.00 0.00 50 1010.6
20260904112543 85 316 4.0 11.0 0.00 0.00 0.00 49 1010.6
20260904111956 85 254 3.0 11.0 0.00 0.00 0.00 47 1010.7
20260904111540 85 250 3.0 10.0 0.00 0.00 0.00 47 1010.7
20260904110956 85 276 4.0 9.0 0.00 0.00 0.00 48 1010.8
20260904110538 85 303 4.0 10.0 0.00 0.00 0.00 48 1010.8
20260904105539 84 325 2.0 9.0 0.00 0.00 0.00 44 1011.0
20260904104947 84 251 3.0 11.0 0.00 0.00 0.00 46 1011.0
20260904103945 85 347 4.0 11.0 0.00 0.00 0.00 47 1010.9
20260904103531 85 329 3.0 11.0 0.00 0.00 0.00 47 1010.9
20260904102946 85 257 3.0 9.0 0.00 0.00 0.00 44 1010.9
20260904101949 85 290 2.0 8.0 0.00 0.00 0.00 45 1011.0
20260904101531 85 281 3.0 10.0 0.00 0.00 0.00 45 1011.0
20260904100942 84 341 4.0 10.0 0.00 0.00 0.00 46 1011.0
20260904095942 84 11 2.0 8.0 0.00 0.00 0.00 47 1010.9
20260904095521 83 257 2.0 11.0 0.00 0.00 0.00 46 1011.0
20260904094942 83 270 2.0 11.0 0.00 0.00 0.00 47 1011.1
20260904094524 83 329 2.0 8.0 0.00 0.00 0.00 46 1011.1
20260904093524 83 269 2.0 9.0 0.00 0.00 0.00 49 1011.0
20260904092936 83 278 2.0 9.0 0.00 0.00 0.00 48 1011.1
20260904092520 83 252 2.0 7.0 0.00 0.00 0.00 50 1011.1
20260904091933 83 324 2.0 7.0 0.00 0.00 0.00 50 1011.1
20260904091519 83 229 2.0 8.0 0.00 0.00 0.00 50 1011.4
20260904090932 83 330 2.0 8.0 0.00 0.00 0.00 51 1011.4
20260904085931 82 300 3.0 9.0 0.00 0.00 0.00 50 1011.5
20260904084515 83 247 2.0 8.0 0.00 0.00 0.00 52 1011.5
20260904083515 82 342 2.0 8.0 0.00 0.00 0.00 50 1011.6
20260904082924 82 20 2.0 11.0 0.00 0.00 0.00 50 1011.5
20260904082511 82 285 1.0 11.0 0.00 0.00 0.00 51 1011.6
20260904081925 81 277 1.0 8.0 0.00 0.00 0.00 50 1011.6